User: anonymous   Login
Location: Acheville
(50.3840°N, 2.8827°E)
Time: 08:05:06
(UTC+00:00)
Language:

deb Chang Zheng 4 - Orbit

View from above orbital plane
View from above orbital plane
View from above satellite
View from above satellite

Ground track
Ground track

The orbit data is extracted from the following two-line orbital elements,

1 20847U 90081K   22019.50367345  .00009942  00000-0  10849-2 0  9994
2 20847  98.5680  45.3221 0016576  86.5051 273.8059 14.88051063654315
Epoch (UTC): 19 January 2022 12:05:17
Eccentricity: 0.0016576
inclination: 98.5680°
perigee height: 592 km
apogee height: 615 km
right ascension of ascending node: 45.3221°
argument of perigee: 86.5051°
revolutions per day: 14.88051063
mean anomaly at epoch: 273.8059°
orbit number at epoch: 65431

The dashed part of the orbit path shows where the satellite is in the earth's shadow,  

DLR